Back to catalog

ARIANE 3 DEB

AliveGTO
NORAD 33538·DEBRIS·🇫🇷 France

Launched Sep 8, 1988 from Guiana Space Centre

Loading…

TLE

StaleSource: Space-Track

Epoch: Sep 12, 2026, 04:03 UTC

1 33538U 88081N   26255.16904997  .00000001  00000-0  16795-2 0  9993
2 33538   7.4325 323.4245 7192528  11.4297 358.7823  2.24402694172432

Track ARIANE 3 DEB in real time with AllMySat

Download on the App Store